When you browse on this site, cookies collect data to enhance your experience and personalize the content and advertising you see.
Visit our Privacy Policy to learn more. By continuing to use the site, you agree to this use of cookies and data.
  • In Hungary
  • List of Countries
  • For 7 days
  • Water Temperature
  • Weather Map
  • News
  • Weather Widgets
  • user-avatar
    Login

    Hourly Weather La Cure

    Today, 13 November, Wednesday

    Time Temperature Precipitation Wind Pressure Humidity
    00:00 -3°C° 0.1 mm 0 mps 652 mmHg 94%
    01:00 -3°C° 0.1 mm 0 mps 652 mmHg 94%
    02:00 -3°C° 0.1 mm 0 mps 652 mmHg 95%
    03:00 -4°C° 0.1 mm 0 mps 651 mmHg 95%
    04:00 -4°C° 0 mm 0 mps 652 mmHg 94%
    05:00 -4°C° 0 mm 0 mps 652 mmHg 93%
    06:00 -5°C° 0 mm 0 mps 652 mmHg 92%
    07:00 -3°C° 0 mm 0 mps 652 mmHg 88%
    08:00 -2°C° 0 mm 0 mps 652 mmHg 84%
    09:00 -1°C° 0 mm 0 mps 653 mmHg 80%
    10:00 0°C° 0 mm 0 mps 653 mmHg 75%
    11:00 +2°C° 0 mm 1 mps 653 mmHg 71%
    12:00 +3°C° 0 mm 1 mps 653 mmHg 66%
    13:00 +2°C° 0 mm 1 mps 653 mmHg 70%
    14:00 +2°C° 0 mm 1 mps 653 mmHg 74%
    15:00 0°C° 0 mm 0 mps 653 mmHg 78%
    16:00 0°C° 0 mm 1 mps 653 mmHg 83%
    17:00 -1°C° 0 mm 1 mps 652 mmHg 87%
    18:00 -2°C° 0 mm 1 mps 652 mmHg 92%
    19:00 -3°C° 0 mm 1 mps 652 mmHg 92%
    20:00 -3°C° 0 mm 1 mps 652 mmHg 91%
    21:00 -3°C° 0 mm 1 mps 652 mmHg 91%
    22:00 -3°C° 0 mm 1 mps 651 mmHg 90%
    23:00 -3°C° 0 mm 1 mps 651 mmHg 89%

    Tomorrow, 14 November, Thursday

    Time Temperature Precipitation Wind Pressure Humidity
    00:00 -2°C° 0 mm 1 mps 651 mmHg 88%
    01:00 -2°C° 0 mm 1 mps 650 mmHg 87%
    02:00 -2°C° 0 mm 1 mps 650 mmHg 87%
    03:00 -4°C° 0 mm 2 mps 649 mmHg 86%
    04:00 -2°C° 0 mm 1 mps 649 mmHg 83%
    05:00 -1°C° 0 mm 1 mps 650 mmHg 80%
    06:00 -1°C° 0 mm 1 mps 650 mmHg 76%
    07:00 -3°C° 0.7 mm 2 mps 650 mmHg 81%
    08:00 -2°C° 0.7 mm 2 mps 651 mmHg 85%
    09:00 -2°C° 0.7 mm 3 mps 651 mmHg 90%
    10:00 -1°C° 0.4 mm 2 mps 651 mmHg 90%
    11:00 +1°C° 0.4 mm 1 mps 650 mmHg 91%
    12:00 +1°C° 0.4 mm 1 mps 650 mmHg 91%
    13:00 +1°C° 1.3 mm 1 mps 650 mmHg 94%
    14:00 -1°C° 1.3 mm 0 mps 649 mmHg 96%
    15:00 -1°C° 1.3 mm 0 mps 649 mmHg 98%
    16:00 -1°C° 1.4 mm 1 mps 649 mmHg 98%
    17:00 -1°C° 1.4 mm 1 mps 648 mmHg 98%
    18:00 -3°C° 1.4 mm 2 mps 648 mmHg 98%
    19:00 -3°C° 1 mm 2 mps 648 mmHg 98%
    20:00 -3°C° 1 mm 2 mps 648 mmHg 98%
    21:00 -3°C° 1 mm 2 mps 648 mmHg 98%
    22:00 -3°C° 1 mm 2 mps 648 mmHg 97%
    23:00 -3°C° 1 mm 2 mps 647 mmHg 97%

    Day after tomorrow, 15 November, Friday

    Time Temperature Precipitation Wind Pressure Humidity
    00:00 -3°C° 1 mm 2 mps 647 mmHg 97%
    01:00 -1°C° 1.3 mm 1 mps 647 mmHg 97%
    02:00 -2°C° 1.3 mm 1 mps 647 mmHg 98%
    03:00 -2°C° 1.3 mm 1 mps 648 mmHg 99%
    04:00 -2°C° 0.4 mm 1 mps 648 mmHg 98%
    05:00 -4°C° 0.4 mm 2 mps 649 mmHg 98%
    06:00 -4°C° 0.4 mm 2 mps 649 mmHg 98%
    07:00 -4°C° 0.1 mm 2 mps 650 mmHg 98%
    08:00 -3°C° 0.1 mm 2 mps 650 mmHg 97%
    09:00 -3°C° 0.1 mm 2 mps 651 mmHg 96%
    10:00 -1°C° 0 mm 1 mps 651 mmHg 95%
    11:00 0°C° 0 mm 1 mps 651 mmHg 95%
    12:00 0°C° 0 mm 1 mps 651 mmHg 94%
    13:00 -1°C° 0 mm 0 mps 651 mmHg 94%
    14:00 -1°C° 0 mm 0 mps 651 mmHg 94%
    15:00 -1°C° 0 mm 0 mps 651 mmHg 95%
    16:00 -2°C° 0 mm 0 mps 651 mmHg 95%
    17:00 -3°C° 0 mm 0 mps 651 mmHg 95%
    18:00 -3°C° 0 mm 1 mps 651 mmHg 95%
    19:00 -3°C° 0 mm 1 mps 652 mmHg 94%
    20:00 -3°C° 0 mm 1 mps 652 mmHg 94%
    21:00 -3°C° 0 mm 1 mps 653 mmHg 93%
    22:00 -3°C° 0 mm 1 mps 653 mmHg 93%
    23:00 -3°C° 0 mm 1 mps 653 mmHg 93%

    16 November, Saturday

    Time Temperature Precipitation Wind Pressure Humidity
    00:00 -4°C° 0 mm 1 mps 654 mmHg 92%
    01:00 -4°C° 0 mm 1 mps 654 mmHg 92%
    02:00 -4°C° 0 mm 1 mps 654 mmHg 91%
    03:00 -4°C° 0 mm 1 mps 654 mmHg 90%
    04:00 -4°C° 0 mm 1 mps 654 mmHg 89%
    05:00 -4°C° 0 mm 1 mps 655 mmHg 88%
    06:00 -4°C° 0 mm 1 mps 655 mmHg 88%
    07:00 -3°C° 0 mm 1 mps 656 mmHg 88%
    08:00 -1°C° 0 mm 1 mps 656 mmHg 89%
    09:00 -1°C° 0 mm 0 mps 657 mmHg 90%
    10:00 +1°C° 0 mm 1 mps 657 mmHg 90%
    11:00 +1°C° 0 mm 1 mps 657 mmHg 90%
    12:00 +2°C° 0 mm 1 mps 657 mmHg 90%
    13:00 +2°C° 0 mm 1 mps 657 mmHg 91%
    14:00 +1°C° 0 mm 1 mps 657 mmHg 93%
    15:00 +1°C° 0 mm 1 mps 657 mmHg 95%
    16:00 0°C° 0 mm 1 mps 657 mmHg 94%
    17:00 -1°C° 0 mm 1 mps 657 mmHg 93%
    18:00 -2°C° 0 mm 1 mps 657 mmHg 93%
    19:00 -3°C° 0 mm 1 mps 657 mmHg 92%
    20:00 -3°C° 0 mm 1 mps 657 mmHg 91%
    21:00 -3°C° 0 mm 1 mps 657 mmHg 90%
    22:00 -4°C° 0 mm 1 mps 656 mmHg 89%
    23:00 -4°C° 0 mm 1 mps 656 mmHg 89%

    17 November, Sunday

    Time Temperature Precipitation Wind Pressure Humidity
    00:00 -4°C° 0 mm 1 mps 656 mmHg 89%
    01:00 -4°C° 0 mm 1 mps 655 mmHg 89%
    02:00 -4°C° 0 mm 1 mps 655 mmHg 89%
    03:00 -4°C° 0 mm 1 mps 655 mmHg 89%
    04:00 -4°C° 0 mm 1 mps 654 mmHg 89%
    05:00 -3°C° 0 mm 1 mps 654 mmHg 89%
    06:00 -3°C° 0 mm 1 mps 654 mmHg 88%
    07:00 -4°C° 0 mm 2 mps 654 mmHg 89%
    08:00 -3°C° 0 mm 2 mps 654 mmHg 89%
    09:00 -2°C° 0 mm 2 mps 654 mmHg 90%
    10:00 -1°C° 0 mm 2 mps 653 mmHg 90%
    11:00 -1°C° 0 mm 3 mps 653 mmHg 90%
    12:00 0°C° 0 mm 3 mps 652 mmHg 91%
    13:00 -1°C° 0 mm 3 mps 652 mmHg 91%
    14:00 -1°C° 0 mm 3 mps 652 mmHg 92%
    15:00 -1°C° 0 mm 3 mps 652 mmHg 93%
    16:00 -2°C° 0 mm 3 mps 652 mmHg 93%
    17:00 -2°C° 0 mm 3 mps 652 mmHg 94%
    18:00 -4°C° 0 mm 3 mps 652 mmHg 95%
    19:00 -3°C° 0.5 mm 2 mps 652 mmHg 96%
    20:00 -3°C° 0.5 mm 2 mps 652 mmHg 97%
    21:00 -3°C° 0.5 mm 2 mps 652 mmHg 98%
    22:00 -3°C° 0.1 mm 2 mps 652 mmHg 97%
    23:00 -1°C° 0.1 mm 1 mps 652 mmHg 97%

    18 November, Monday

    Time Temperature Precipitation Wind Pressure Humidity
    00:00 -1°C° 0.1 mm 1 mps 652 mmHg 97%
    01:00 -1°C° 0.1 mm 1 mps 652 mmHg 97%
    02:00 -1°C° 0.1 mm 1 mps 652 mmHg 97%
    03:00 -1°C° 0.1 mm 1 mps 653 mmHg 97%
    04:00 -1°C° 0.1 mm 1 mps 653 mmHg 97%
    05:00 -1°C° 0.1 mm 1 mps 653 mmHg 97%
    06:00 -1°C° 0.1 mm 1 mps 654 mmHg 97%
    07:00 -1°C° 0 mm 1 mps 654 mmHg 97%
    08:00 0°C° 0 mm 1 mps 654 mmHg 96%
    09:00 0°C° 0 mm 1 mps 655 mmHg 95%
    10:00 +1°C° 0 mm 1 mps 655 mmHg 95%
    11:00 +1°C° 0 mm 1 mps 655 mmHg 94%
    12:00 +1°C° 0 mm 1 mps 655 mmHg 94%
    13:00 0°C° 0 mm 0 mps 655 mmHg 94%
    14:00 0°C° 0 mm 0 mps 656 mmHg 95%
    15:00 0°C° 0 mm 0 mps 656 mmHg 96%
    16:00 0°C° 0 mm 0 mps 656 mmHg 96%
    17:00 -1°C° 0 mm 0 mps 656 mmHg 96%
    18:00 0°C° 0 mm 1 mps 656 mmHg 96%
    19:00 -1°C° 0 mm 0 mps 656 mmHg 96%
    20:00 -1°C° 0 mm 0 mps 657 mmHg 96%
    21:00 -1°C° 0 mm 0 mps 657 mmHg 96%
    22:00 -2°C° 0 mm 0 mps 657 mmHg 96%
    23:00 -2°C° 0 mm 0 mps 656 mmHg 96%
    Show more